Weather History for Livingston, MT

Change the Weather History Date:

Tuesday, February 5, 2013

  Actual Average Record
Temperature  
Mean Temperature 42 °F 28 °F  
Max Temperature 48 °F 38 °F 60 °F (1963)
Min Temperature 37 °F 18 °F -29 °F (1989)
Degree Days  
Heating Degree Days 22 37  
Month to date heating degree days 186  
Since 1 July heating degree days 4527  
Moisture  
Dew Point 22 °F    
Average Humidity 46    
Maximum Humidity 60    
Minimum Humidity 37    
Precipitation  
Precipitation 0.00 in 0.02 in 0.13 in (2001)
Month to date precipitation 0.08  
Year to date precipitation 0.57  
Sea Level Pressure  
Sea Level Pressure 29.82 in    
Wind  
Wind Speed 22 mph (SW)    
Max Wind Speed 30 mph    
Max Gust Speed 40 mph    
Visibility 10 miles    
Events Snow    
T = Trace of Precipitation, MM = Missing Value Source: NWS Daily Summary

Daily Weather History Graph

Daily Weather History Graph

Search for Another Location

Airport:

Trip Planner

Search our weather history database for the weather conditions in past years. The results will help you decide how hot, cold, wet, or windy it might be!

Date:

Astronomy

Feb. 05, 2013 Rise Set
Actual Time 7:37 AM MST 5:34 PM MST
Civil Twilight 7:06 AM MST 6:05 PM MST
Nautical Twilight 6:31 AM MST 6:41 PM MST
Astronomical Twilight 5:56 AM MST 7:15 PM MST
Moon 3:29 AM MST (2/5) 12:49 PM MST (2/5)
Length of Visible Light 10h 59m
Length of Day
9h 56m
Waning Crescent, 26% of the Moon is Illuminated
Feb 5
Waning Crescent
Feb 10
New
Feb 17
First Quarter
Feb 25
Full
Mar 4
Last Quarter

Hourly Weather History & Observations

Time (MST) Temp. Windchill Dew Point Humidity Pressure Visibility Wind Dir Wind Speed Gust Speed Precip Events Conditions
12:53 AM 41.0 °F 31.9 °F 21.0 °F 45% 29.91 in 10.0 mi WSW 19.6 mph 29.9 mph N/A   Clear
1:53 AM 39.0 °F 29.6 °F 21.0 °F 49% 29.91 in 10.0 mi WSW 18.4 mph 25.3 mph N/A   Clear
2:53 AM 37.9 °F 30.0 °F 21.0 °F 51% 29.93 in 10.0 mi West 12.7 mph 21.9 mph N/A   Clear
3:53 AM 39.0 °F 28.8 °F 19.9 °F 46% 29.92 in 10.0 mi WSW 21.9 mph - N/A   Clear
4:53 AM 39.0 °F 28.0 °F 21.0 °F 49% 29.90 in 10.0 mi SW 25.3 mph 38.0 mph N/A   Clear
5:53 AM 37.9 °F 27.9 °F 23.0 °F 55% 29.90 in 10.0 mi West 19.6 mph 27.6 mph N/A   Overcast
6:51 AM 39.2 °F 27.4 °F 21.2 °F 49% 29.87 in 10.0 mi SSW 29.9 mph 35.7 mph N/A   Overcast
6:53 AM 39.9 °F 28.6 °F 23.0 °F 51% 29.88 in 10.0 mi SSW 28.8 mph 36.8 mph N/A   Overcast
7:53 AM 37.9 °F 27.1 °F 25.0 °F 60% 29.92 in 9.0 mi SSW 23.0 mph 31.1 mph 0.00 in Snow Light Snow
8:53 AM 39.0 °F 29.9 °F 26.1 °F 60% 29.91 in - WSW 17.3 mph 24.2 mph 0.00 in   Overcast
9:53 AM 41.0 °F 31.6 °F 25.0 °F 53% 29.87 in - SW 20.7 mph 27.6 mph N/A   Overcast
10:53 AM 44.1 °F 34.4 °F 24.1 °F 45% 29.86 in - SSW 27.6 mph 34.5 mph N/A   Scattered Clouds
11:53 AM 45.0 °F 36.6 °F 24.1 °F 44% 29.83 in 10.0 mi SSW 21.9 mph 34.5 mph N/A   Scattered Clouds
12:53 PM 46.9 °F - 24.1 °F 41% 29.80 in 10.0 mi SW 25.3 mph 38.0 mph N/A   Clear
1:53 PM 48.0 °F - 23.0 °F 37% 29.77 in 10.0 mi SW 26.5 mph 38.0 mph N/A   Overcast
2:53 PM 46.0 °F 36.9 °F 23.0 °F 40% 29.76 in 10.0 mi SW 28.8 mph 39.1 mph N/A   Overcast
3:53 PM 46.0 °F 37.0 °F 23.0 °F 40% 29.74 in 10.0 mi SW 27.6 mph 35.7 mph N/A   Mostly Cloudy
4:53 PM 45.0 °F 35.6 °F 21.9 °F 40% 29.73 in 10.0 mi SSW 27.6 mph 34.5 mph N/A   Clear
5:53 PM 43.0 °F 32.9 °F 23.0 °F 45% 29.74 in 10.0 mi SSW 27.6 mph 35.7 mph N/A   Scattered Clouds
6:53 PM 42.1 °F 33.3 °F 21.0 °F 43% 29.74 in 10.0 mi WSW 19.6 mph 31.1 mph N/A   Partly Cloudy
7:53 PM 42.1 °F 32.3 °F 19.9 °F 41% 29.75 in 10.0 mi SW 24.2 mph 36.8 mph N/A   Mostly Cloudy
8:53 PM 42.1 °F 32.1 °F 19.0 °F 40% 29.73 in 10.0 mi SW 25.3 mph 35.7 mph N/A   Clear
9:53 PM 42.1 °F 31.5 °F 19.0 °F 40% 29.73 in 10.0 mi SSW 28.8 mph 39.1 mph N/A   Clear
10:53 PM 42.1 °F 31.5 °F 19.0 °F 40% 29.73 in 10.0 mi SSW 28.8 mph 40.3 mph N/A   Unknown
11:53 PM 39.9 °F 30.8 °F 19.0 °F 43% 29.74 in 10.0 mi SW 18.4 mph 27.6 mph N/A   Clear